Home > Weather > Oer-Erkenschwick > Past weeks

Flag for Germany Weather for the Past 2 Weeks in Oer-Erkenschwick, North Rhine-Westphalia, Germany

Now
30 °F

Clear.


Feels Like: 27 °F
Forecast: 35 / 37 °F
Wind: 3 mph from North

Location: Dortmund / Wickede

Current Time: Feb 13, 2016 at 1:52:31 AM

Latest Report: Feb 12, 2016 at 10:50 PM


Visibility: 10 mi

Pressure: 29.42 "Hg

Humidity: 80%

Dew point: 25 °F

Location of Oer-ErkenschwickLocation

Historic Weather in Oer-Erkenschwick — Graph

°F

Oer-Erkenschwick Temperature Yesterday

Maximum temperature yesterday: 41 °F (at 1:20 PM)
Minimum temperature yesterday: 30 °F (at 10:20 PM)
Average temperature yesterday: 37 °F

High & Low Weather Summary for the Past Weeks

 TemperatureHumidityPressure
High52 °F (Feb 1, 5:20 AM)94% (Feb 1, 7:20 AM)30.30 "Hg (Feb 1, 7:20 AM)
Low30 °F (Feb 12, 10:20 PM)53% (Feb 3, 3:20 PM)28.82 "Hg (Feb 9, 3:50 PM)
Average42 °F76%29.75 "Hg
* Reported Jan 28 10:20 PM — Feb 12 10:50 PM, Oer-Erkenschwick, Weather by CustomWeather, © 2016

Note: Actual official high and low records may vary slightly from our data, if they occured in-between our weather recording intervals... More about our weather records

Advertising

Oer-Erkenschwick Weather History for the Previous 24 Hours

 ConditionsComfort  
Time TempWeatherWind HumidityBarometerVisibility
10:50 PM
Fri, Feb 12
30 °FClear.3 mph80%29.42 "Hg10 mi
10:20 PM30 °FClear.5 mph80%29.45 "Hg10 mi
9:50 PM32 °FClear.3 mph75%29.45 "Hg10 mi
9:20 PM32 °FClear.5 mph75%29.45 "Hg10 mi
8:50 PM34 °FClear.6 mph70%29.45 "Hg10 mi
8:20 PM34 °FClear.6 mph70%29.45 "Hg10 mi
7:50 PM34 °FClear.6 mph70%29.45 "Hg10 mi
7:20 PM36 °FClear.5 mph65%29.45 "Hg10 mi
6:50 PM36 °FClear.6 mph65%29.45 "Hg10 mi
6:20 PM37 °FClear.6 mph60%29.45 "Hg10 mi
5:50 PM39 °FPassing clouds.9 mph56%29.45 "HgN/A
5:20 PM39 °FScattered clouds.8 mph61%29.45 "HgN/A
4:50 PM39 °FPartly sunny.8 mph56%29.45 "HgN/A
4:20 PM39 °FPartly sunny.7 mph56%29.45 "HgN/A
3:50 PM41 °FPartly sunny.8 mph53%29.47 "HgN/A
3:20 PM41 °FScattered clouds.6 mph57%29.47 "HgN/A
2:50 PM41 °FScattered clouds.8 mph53%29.47 "HgN/A
2:20 PM41 °FPassing clouds.9 mph57%29.47 "HgN/A
1:50 PM41 °FScattered clouds.9 mph57%29.50 "HgN/A
1:20 PM41 °FScattered clouds.6 mph61%29.50 "HgN/A
12:50 PM39 °FPassing clouds.9 mph65%29.53 "HgN/A
12:20 PM39 °FPassing clouds.9 mph65%29.53 "HgN/A
11:50 AM37 °FSunny.12 mph70%29.53 "Hg10 mi
11:20 AM39 °FSunny.14 mph70%29.56 "Hg10 mi
10:50 AM39 °FSunny.14 mph65%29.56 "Hg10 mi
10:20 AM37 °FSunny.13 mph75%29.56 "Hg10 mi
9:50 AM37 °FScattered clouds.12 mph75%29.59 "HgN/A
9:20 AM36 °FPartly sunny.8 mph81%29.59 "HgN/A
8:50 AM36 °FBroken clouds.8 mph87%29.59 "HgN/A
8:20 AM36 °FBroken clouds.7 mph87%29.59 "HgN/A
7:50 AM36 °FPartly sunny.8 mph87%29.59 "HgN/A
7:20 AM36 °FPassing clouds.7 mph81%29.59 "HgN/A
6:50 AM36 °FPassing clouds.6 mph81%29.59 "HgN/A
6:20 AM36 °FPassing clouds.8 mph87%29.62 "HgN/A
5:50 AM36 °FPassing clouds.6 mph81%29.62 "HgN/A
Weather by CustomWeather, © 2016

See weather overviewHow to use our weather pages